User: anonymous
Location: Lawrence Hall of Science
(37.8785°N, 122.2415°W)
Time: 12:03:16
(UTC-07:00)
Language:

Cosmos 2098 Rocket - Orbit

View from above orbital plane
View from above orbital plane
View from above satellite
View from above satellite

Ground track
Ground track

The orbit data is extracted from the following two-line orbital elements,

1 20775U 90078B   14106.47025201  .00006257  00000-0  34825-3 0  3852
2 20775 082.9339 269.0003 0645780 279.2049 127.7826 14.16423298183870
Epoch (UTC): 16 April 2014 11:17:09
Eccentricity: 0.0645780
inclination: 82.9339°
perigee height: 371 km
apogee height: 1303 km
right ascension of ascending node: 269.0003°
argument of perigee: 279.2049°
revolutions per day: 14.16423298
mean anomaly at epoch: 127.7826°
orbit number at epoch: 18387

The dashed part of the orbit path shows where the satellite is in the earth's shadow,  

DLR